When you browse on this site, cookies collect data to enhance your experience and personalize the content and advertising you see.
Visit our Privacy Policy to learn more. By continuing to use the site, you agree to this use of cookies and data.
  • En España
  • Lista de países
  • Para 7 días
  • Temperatura del agua
  • Mapa Satelital
  • El tiempo en el mapa
  • Informadores
  • user-avatar
    Iniciar sesión

    Tiempo cada hora Chervonyi Kyiv

    Hoy, 22 Marzo, Viernes

    Tiempo Temperatura Precipitaciones Viento Presión Humedad
    00:00 +7°C° 0 mm 2 mps 760 mmHg 71%
    01:00 +7°C° 0 mm 2 mps 760 mmHg 70%
    02:00 +7°C° 0 mm 2 mps 760 mmHg 71%
    03:00 +6°C° 0 mm 2 mps 760 mmHg 72%
    04:00 +6°C° 0 mm 2 mps 760 mmHg 72%
    05:00 +6°C° 0 mm 2 mps 760 mmHg 73%
    06:00 +5°C° 0 mm 3 mps 759 mmHg 72%
    07:00 +7°C° 0 mm 3 mps 759 mmHg 71%
    08:00 +7°C° 0 mm 4 mps 759 mmHg 69%
    09:00 +8°C° 0 mm 5 mps 759 mmHg 65%
    10:00 +9°C° 0 mm 5 mps 758 mmHg 62%
    11:00 +11°C° 0 mm 6 mps 758 mmHg 58%
    12:00 +11°C° 0 mm 6 mps 757 mmHg 61%
    13:00 +11°C° 0 mm 6 mps 757 mmHg 64%
    14:00 +10°C° 0 mm 7 mps 756 mmHg 67%
    15:00 +10°C° 0 mm 7 mps 756 mmHg 69%
    16:00 +10°C° 0 mm 7 mps 756 mmHg 71%
    17:00 +10°C° 0 mm 7 mps 755 mmHg 73%
    18:00 +10°C° 0.1 mm 7 mps 756 mmHg 70%
    19:00 +9°C° 0.1 mm 7 mps 756 mmHg 66%
    20:00 +9°C° 0.1 mm 8 mps 756 mmHg 63%
    21:00 +8°C° 0 mm 7 mps 756 mmHg 62%
    22:00 +5°C° 0 mm 6 mps 756 mmHg 61%
    23:00 +5°C° 0 mm 4 mps 757 mmHg 59%

    Mañana, 23 Marzo, Sábado

    Tiempo Temperatura Precipitaciones Viento Presión Humedad
    00:00 +4°C° 0 mm 4 mps 757 mmHg 58%
    01:00 +3°C° 0 mm 5 mps 757 mmHg 56%
    02:00 +2°C° 0 mm 5 mps 757 mmHg 54%
    03:00 +1°C° 0 mm 5 mps 757 mmHg 56%
    04:00 +1°C° 0 mm 5 mps 757 mmHg 57%
    05:00 -1°C° 0 mm 6 mps 756 mmHg 58%
    06:00 +1°C° 0 mm 6 mps 756 mmHg 57%
    07:00 0°C° 0 mm 7 mps 756 mmHg 55%
    08:00 0°C° 0 mm 8 mps 756 mmHg 54%
    09:00 +1°C° 0 mm 8 mps 756 mmHg 52%
    10:00 +2°C° 0 mm 8 mps 756 mmHg 50%
    11:00 +3°C° 0 mm 9 mps 756 mmHg 48%
    12:00 +5°C° 0 mm 8 mps 756 mmHg 47%
    13:00 +5°C° 0 mm 8 mps 756 mmHg 46%
    14:00 +6°C° 0 mm 7 mps 756 mmHg 46%
    15:00 +5°C° 0 mm 7 mps 756 mmHg 47%
    16:00 +5°C° 0 mm 7 mps 756 mmHg 47%
    17:00 +5°C° 0 mm 6 mps 756 mmHg 48%
    18:00 +5°C° 0 mm 6 mps 756 mmHg 51%
    19:00 +5°C° 0 mm 5 mps 757 mmHg 54%
    20:00 +5°C° 0 mm 4 mps 757 mmHg 56%
    21:00 +4°C° 0 mm 4 mps 757 mmHg 61%
    22:00 +3°C° 0 mm 4 mps 757 mmHg 66%
    23:00 +2°C° 0 mm 3 mps 757 mmHg 70%

    Pasado mañana, 24 Marzo, Domingo

    Tiempo Temperatura Precipitaciones Viento Presión Humedad
    00:00 +2°C° 0 mm 3 mps 757 mmHg 72%
    01:00 +1°C° 0 mm 3 mps 757 mmHg 75%
    02:00 +1°C° 0 mm 3 mps 757 mmHg 77%
    03:00 +2°C° 0 mm 2 mps 757 mmHg 79%
    04:00 +1°C° 0 mm 2 mps 756 mmHg 80%
    05:00 +1°C° 0 mm 2 mps 756 mmHg 82%
    06:00 +2°C° 0 mm 2 mps 756 mmHg 78%
    07:00 +3°C° 0 mm 2 mps 756 mmHg 73%
    08:00 +4°C° 0 mm 2 mps 756 mmHg 69%
    09:00 +5°C° 0 mm 2 mps 756 mmHg 62%
    10:00 +7°C° 0 mm 2 mps 756 mmHg 55%
    11:00 +8°C° 0 mm 2 mps 756 mmHg 49%
    12:00 +9°C° 0 mm 3 mps 755 mmHg 44%
    13:00 +11°C° 0 mm 3 mps 755 mmHg 39%
    14:00 +12°C° 0 mm 3 mps 754 mmHg 35%
    15:00 +12°C° 0 mm 3 mps 754 mmHg 34%
    16:00 +12°C° 0 mm 3 mps 753 mmHg 34%
    17:00 +12°C° 0 mm 3 mps 753 mmHg 33%
    18:00 +11°C° 0 mm 3 mps 753 mmHg 36%
    19:00 +11°C° 0 mm 3 mps 753 mmHg 39%
    20:00 +10°C° 0 mm 2 mps 753 mmHg 42%
    21:00 +10°C° 0 mm 2 mps 753 mmHg 49%
    22:00 +9°C° 0 mm 2 mps 752 mmHg 55%
    23:00 +9°C° 0 mm 2 mps 752 mmHg 62%

    25 Marzo, Lunes

    Tiempo Temperatura Precipitaciones Viento Presión Humedad
    00:00 +9°C° 0 mm 2 mps 752 mmHg 68%
    01:00 +8°C° 0 mm 2 mps 752 mmHg 74%
    02:00 +9°C° 0 mm 1 mps 752 mmHg 80%
    03:00 +8°C° 0 mm 1 mps 752 mmHg 80%
    04:00 +7°C° 0 mm 2 mps 751 mmHg 80%
    05:00 +7°C° 0 mm 2 mps 751 mmHg 80%
    06:00 +7°C° 0 mm 2 mps 751 mmHg 75%
    07:00 +7°C° 0 mm 3 mps 751 mmHg 70%
    08:00 +8°C° 0 mm 3 mps 751 mmHg 65%
    09:00 +8°C° 0 mm 3 mps 751 mmHg 58%
    10:00 +9°C° 0 mm 3 mps 751 mmHg 51%
    11:00 +10°C° 0 mm 3 mps 751 mmHg 44%
    12:00 +10°C° 0 mm 3 mps 751 mmHg 43%
    13:00 +10°C° 0 mm 3 mps 751 mmHg 42%
    14:00 +10°C° 0 mm 3 mps 750 mmHg 41%
    15:00 +10°C° 0 mm 3 mps 750 mmHg 42%
    16:00 +10°C° 0 mm 3 mps 750 mmHg 43%
    17:00 +10°C° 0 mm 3 mps 750 mmHg 43%
    18:00 +9°C° 0 mm 3 mps 750 mmHg 47%
    19:00 +8°C° 0 mm 2 mps 750 mmHg 51%
    20:00 +7°C° 0 mm 2 mps 750 mmHg 55%
    21:00 +6°C° 0 mm 2 mps 750 mmHg 56%
    22:00 +7°C° 0 mm 1 mps 751 mmHg 57%
    23:00 +6°C° 0 mm 1 mps 751 mmHg 58%

    26 Marzo, Martes

    Tiempo Temperatura Precipitaciones Viento Presión Humedad
    00:00 +6°C° 0 mm 1 mps 751 mmHg 59%
    01:00 +5°C° 0 mm 1 mps 751 mmHg 59%
    02:00 +5°C° 0 mm 1 mps 751 mmHg 60%
    03:00 +5°C° 0 mm 1 mps 751 mmHg 60%
    04:00 +4°C° 0 mm 0 mps 751 mmHg 61%
    05:00 +4°C° 0 mm 0 mps 751 mmHg 61%
    06:00 +4°C° 0 mm 0 mps 751 mmHg 58%
    07:00 +5°C° 0 mm 0 mps 752 mmHg 56%
    08:00 +6°C° 0 mm 0 mps 752 mmHg 53%
    09:00 +8°C° 0 mm 1 mps 752 mmHg 48%
    10:00 +9°C° 0 mm 1 mps 753 mmHg 43%
    11:00 +11°C° 0 mm 1 mps 753 mmHg 39%
    12:00 +10°C° 0 mm 2 mps 753 mmHg 36%
    13:00 +12°C° 0 mm 2 mps 753 mmHg 34%
    14:00 +12°C° 0 mm 2 mps 753 mmHg 32%
    15:00 +12°C° 0 mm 2 mps 754 mmHg 33%
    16:00 +12°C° 0 mm 2 mps 754 mmHg 34%
    17:00 +12°C° 0 mm 2 mps 754 mmHg 35%
    18:00 +10°C° 0 mm 2 mps 755 mmHg 40%
    19:00 +9°C° 0 mm 2 mps 755 mmHg 45%
    20:00 +8°C° 0 mm 2 mps 756 mmHg 50%
    21:00 +7°C° 0 mm 3 mps 757 mmHg 55%
    22:00 +7°C° 0 mm 3 mps 757 mmHg 60%
    23:00 +5°C° 0 mm 3 mps 757 mmHg 65%

    27 Marzo, Miércoles

    Tiempo Temperatura Precipitaciones Viento Presión Humedad
    00:00 +4°C° 0 mm 3 mps 758 mmHg 66%
    01:00 +4°C° 0 mm 3 mps 758 mmHg 68%
    02:00 +4°C° 0 mm 3 mps 758 mmHg 70%
    03:00 +3°C° 0 mm 3 mps 759 mmHg 71%
    04:00 +3°C° 0 mm 3 mps 759 mmHg 73%
    05:00 +2°C° 0 mm 3 mps 759 mmHg 74%
    06:00 +3°C° 0 mm 3 mps 760 mmHg 71%
    07:00 +4°C° 0 mm 3 mps 760 mmHg 68%
    08:00 +5°C° 0 mm 3 mps 761 mmHg 65%
    09:00 +7°C° 0 mm 3 mps 761 mmHg 58%
    10:00 +7°C° 0 mm 4 mps 761 mmHg 50%
    11:00 +8°C° 0 mm 4 mps 761 mmHg 43%
    12:00 +10°C° 0 mm 4 mps 761 mmHg 38%
    13:00 +10°C° 0 mm 4 mps 760 mmHg 33%
    14:00 +11°C° 0 mm 4 mps 760 mmHg 28%
    15:00 +11°C° 0 mm 4 mps 760 mmHg 27%
    16:00 +11°C° 0 mm 4 mps 760 mmHg 27%
    17:00 +10°C° 0 mm 4 mps 759 mmHg 26%
    18:00 +9°C° 0 mm 3 mps 760 mmHg 29%
    19:00 +8°C° 0 mm 2 mps 760 mmHg 32%
    20:00 +7°C° 0 mm 2 mps 760 mmHg 35%
    21:00 +6°C° 0 mm 2 mps 760 mmHg 37%
    22:00 +6°C° 0 mm 2 mps 760 mmHg 39%
    23:00 +5°C° 0 mm 2 mps 760 mmHg 41%
    Mostrar más